Weather in Zhovten

Ukraine / Ivano-Frankovsk District     49°02′19″N   24°45′34″E
temp.,
°C
wind,
m/s
gust,
m/s
humid.,
%
clouds,
%
prec.,
mm/h
press.,
hPa
HPBL,
m
17 august, wed
wed1700:00+18nw399099 0.8 1009255
03:00+17wnw5119198 0.9 1008337
06:00+16nw5119429 0.0 1009332
09:00+19nw4587100 0.0 1010366
12:00+22nnw4571100 0.0 1011799
15:00+25nw455756 0.3 10101550
18:00+22nw467857 1.2 1011384
21:00+19nw338730 1.3 101245
18 august, thu
thu1800:00+17wnw22935 0.0 101229
03:00+16wnw23945 0.0 101252
06:00+16wnw22955 0.0 101222
09:00+20nw34805 0.0 1013315
12:00+26nnw33560 0.0 10131041
15:00+28n344611 0.0 10121820
18:00+28ne334715 0.0 10121625
21:00+23nne116759 0.0 101311
19 august, fri
fri1900:00+21nne01755 0.0 101311
03:00+19ne01810 0.0 101311
06:00+17sse008421 0.0 101311
09:00+22ese22635 0.0 1013249
12:00+28ese33435 0.0 10131160
15:00+31e33355 0.0 10121716
18:00+30e44364 0.0 10111679
21:00+23e49573 0.0 1011129
20 august, sat
sat2000:00+20sse22666 0.0 101218
03:00+19ese2271100 0.0 101221
06:00+18se227588 0.0 101134
09:00+23se475810 0.0 1011331
12:00+30se564086 0.0 10111085
15:00+33ese443290 0.0 10101647
18:00+32ene44343 0.1 10081406
21:00+21ssw91574100 0.6 1011332
21 august, sun
sun2100:00+20nw127894 0.2 101024
03:00+18wnw3696100 0.3 1012172
06:00+19wnw489694 0.0 1012310
09:00+21nw468580 0.0 1012478
12:00+24nw4472100 0.1 1012938
15:00+25nw3365100 0.1 10111045
18:00+23wnw5672100 0.3 1012624
21:00+19wnw379594 1.6 1012245